Time,TemperatureF,DewpointF,PressureIn,WindDirection,WindDirectionDegrees,WindSpeedMPH,WindSpeedGustMPH,Humidity,HourlyPrecipIn,Conditions,Clouds,dailyrainin,SoftwareType,DateUTC
2013-08-26 00:23:00,76.0,65.0,30.04,ESE,122,2.0,2.0,70,0.00,,,0.00,,2013-08-26 05:23:00,
2013-08-26 00:52:00,75.0,65.0,30.04,East,97,0.0,0.0,72,0.00,,,0.00,,2013-08-26 05:52:00,
2013-08-26 01:12:00,75.0,66.0,30.04,East,97,0.0,0.0,74,0.00,,,0.00,,2013-08-26 06:12:00,
2013-08-26 01:21:00,75.0,66.0,30.04,East,97,0.0,0.0,73,0.00,,,0.00,,2013-08-26 06:21:00,
2013-08-26 01:52:00,73.0,66.0,30.04,East,97,0.0,0.0,78,0.00,,,0.00,,2013-08-26 06:52:00,
2013-08-26 02:22:00,71.0,65.0,30.04,East,97,0.0,0.0,82,0.00,,,0.00,,2013-08-26 07:22:00,
2013-08-26 02:52:00,72.0,66.0,30.04,East,97,0.0,0.0,82,0.00,,,0.00,,2013-08-26 07:52:00,
2013-08-26 03:22:00,71.0,66.0,30.04,East,97,0.0,0.0,83,0.00,,,0.00,,2013-08-26 08:22:00,
2013-08-26 03:52:00,71.0,66.0,30.04,ENE,62,2.0,2.0,85,0.00,,,0.00,,2013-08-26 08:52:00,
2013-08-26 04:21:00,70.0,65.0,30.04,NE,56,0.0,0.0,85,0.00,,,0.00,,2013-08-26 09:21:00,
2013-08-26 04:54:00,69.0,65.0,30.04,East,96,3.0,3.0,87,0.00,,,0.00,,2013-08-26 09:54:00,
2013-08-26 05:23:00,69.0,66.0,30.05,ESE,104,0.0,0.0,89,0.00,,,0.00,,2013-08-26 10:23:00,
2013-08-26 05:52:00,69.0,66.0,30.05,ESE,103,0.0,0.0,91,0.00,,,0.00,,2013-08-26 10:52:00,
2013-08-26 06:22:00,68.0,66.0,30.06,ESE,103,0.0,0.0,92,0.00,,,0.00,,2013-08-26 11:22:00,
2013-08-26 06:52:00,67.0,65.0,30.07,ESE,103,0.0,0.0,93,0.00,,,0.00,,2013-08-26 11:52:00,
2013-08-26 07:21:00,67.0,65.0,30.07,ESE,103,0.0,0.0,94,0.00,,,0.00,,2013-08-26 12:21:00,
2013-08-26 07:52:00,68.0,67.0,30.08,ESE,103,0.0,0.0,95,0.00,,,0.00,,2013-08-26 12:52:00,
2013-08-26 08:21:00,73.0,69.0,30.09,ESE,103,0.0,0.0,87,0.00,,,0.00,,2013-08-26 13:21:00,
2013-08-26 12:53:00,91.0,69.0,30.07,East,96,11.0,11.0,49,0.00,,,0.00,,2013-08-26 17:53:00,
2013-08-26 13:52:00,93.0,68.0,30.04,ESE,103,6.0,7.0,45,0.00,,,0.00,,2013-08-26 18:52:00,
2013-08-26 14:52:00,93.0,68.0,30.01,ESE,105,11.0,11.0,44,0.00,,,0.00,,2013-08-26 19:52:00,
2013-08-26 15:22:00,93.0,68.0,30.00,East,100,15.0,15.0,44,0.00,,,0.00,,2013-08-26 20:22:00,
2013-08-26 15:52:00,94.0,67.0,29.99,East,97,9.0,12.0,42,0.00,,,0.00,,2013-08-26 20:52:00,
2013-08-26 16:22:00,92.0,67.0,29.98,ESE,103,7.0,7.0,44,0.00,,,0.00,,2013-08-26 21:22:00,
2013-08-26 16:55:00,95.0,67.0,29.97,NE,53,9.0,11.0,40,0.00,,,0.00,,2013-08-26 21:55:00,
2013-08-26 17:26:00,92.0,66.0,29.97,SE,134,11.0,12.0,43,0.00,,,0.00,,2013-08-26 22:26:00,
2013-08-26 17:53:00,93.0,66.0,29.96,East,80,12.0,12.0,42,0.00,,,0.00,,2013-08-26 22:53:00,
2013-08-26 18:22:00,90.0,67.0,29.96,ESE,111,11.0,11.0,47,0.00,,,0.00,,2013-08-26 23:22:00,
2013-08-26 18:52:00,88.0,66.0,29.96,ENE,77,10.0,10.0,48,0.00,,,0.00,,2013-08-26 23:52:00,
2013-08-26 19:21:00,89.0,67.0,29.96,ESE,121,6.0,8.0,48,0.00,,,0.00,,2013-08-27 00:21:00,
2013-08-26 19:52:00,86.0,65.0,29.96,SE,125,7.0,7.0,50,0.00,,,0.00,,2013-08-27 00:52:00,
2013-08-26 20:22:00,85.0,66.0,29.97,East,87,4.0,4.0,54,0.00,,,0.00,,2013-08-27 01:22:00,
2013-08-26 20:52:00,82.0,66.0,29.97,East,94,4.0,5.0,59,0.00,,,0.00,,2013-08-27 01:52:00,
2013-08-26 21:21:00,80.0,66.0,29.98,ESE,120,3.0,3.0,63,0.00,,,0.00,,2013-08-27 02:21:00,
2013-08-26 21:52:00,78.0,66.0,29.98,ESE,103,0.0,0.0,66,0.00,,,0.00,,2013-08-27 02:52:00,
2013-08-26 22:22:00,76.0,65.0,29.98,ESE,103,0.0,0.0,69,0.00,,,0.00,,2013-08-27 03:22:00,
2013-08-26 22:58:00,75.0,65.0,29.98,ESE,103,0.0,0.0,71,0.00,,,0.00,,2013-08-27 03:58:00,
2013-08-26 23:18:00,74.0,65.0,29.98,ESE,103,0.0,0.0,73,0.00,,,0.00,,2013-08-27 04:18:00,
2013-08-26 23:54:00,73.0,64.0,29.98,ENE,70,0.0,0.0,74,0.00,,,0.00,,2013-08-27 04:54:00,